Location: Tamazert
(32.6352°N, 5.2072°W)
Time: 16:28:47
(UTC+00:00)

Lacrosse 5 - Pass Details

Date: 22 May 2022
Orbit: 714 x 724 km, 57.0° (Epoch: 09 March)

Event Time Altitude Azimuth Distance (km) Brightness Sun altitude
Exits shadow 04:24:04 - 279° (W) 2,573 4.3 -10.8°
Reaches altitude 10° 04:25:38 10° 292° (WNW) 2,211 4.1 -10.5°
Maximum altitude 04:28:23 14° 325° (NW) 1,922 4.1 -10.0°
Drops below altitude 10° 04:31:09 10° 358° (N) 2,212 4.8 -9.5°
Sets 04:34:39 0° 23° (NNE) 3,134 6.2 -8.9°
